Location: Mary A Oil Field
(38.5606°N, 98.9545°W)
Time: 08:35:54
(UTC+00:00)

ATLAS 5 CENTAUR R/B - Pass Details

Date: 20 January 2020
Orbit: 283 x 14331 km, 60.7° (Epoch: 27 February)

Event Time Altitude Azimuth Distance (km) Brightness Sun altitude
Rises 02:35:20 0° 330° (NNW) 3,218 6.1 -33.4°
Reaches altitude 10° 02:36:54 10° 338° (NNW) 2,683 5.5 -33.7°
Enters shadow 02:40:23 39° 10° (N) 2,062 4.5 -34.4°
Exits shadow 03:12:36 - 130° (SE) 11,351 8.0 -40.7°
Sets 03:25:35 0° 135° (SE) 14,361 8.6 -43.2°
